SCP
0 0 0 0 0 0 0 0 0 0 0 0 0 0 0 0 0 0 0 0 0 0 0 0 0 0 0 0 0 0 0 0 0 0 0 0 0 0 0 0 0 0 0 0
0 0 0 0 0 0 0 0 0 0 0 0 0 0 0 0 0 0 0 0 0 0 0 0 0 0 0 0 0 0 0 0 0 0 0 0 0 0 0 0 0 0 0 0
0 0 0 0 0 0 0 0 0 0 0 0 0 -0 -0 0 0 0 0 0 0 0 0 0 0 0 0 0 0 0 0 0 0 0 0 0 0 0 0 0 0 0 0 0
0 0 0 0 0 0 0 0 0 0 0 0 0 -0 0 0 0 0 0 0 0 0 0 0 0 0 0 0 0 0 0 0 0 0 0 0 0 0 0 0 0 0 0 0
0 0 0 0 0 0 0 0 0 0 0 0 0 0 -0 -0 0 0 0 0 0 0 0 0 0 0 0 0 0 0 0 0 0 0 0 0 0 0 0 0 0 0 0 0
0 0 0 0 0 0 0 0 0 0 0 0 0 0 -0 0 0 0 0 0 0 0 0 0 0 0 0 0 0 0 0 0 0 0 0 0 0 0 0 0 0 0 0 0
0 0 0 0 0 0 0 0 0 0 0 0 0 0 0 0 0 0 0 0 0 0 0 0 0 0 0 0 0 0 0 0 0 0 0 0 0 0 0 0 0 0 0 0
0 0 0 0 0 0 0 0 0 0 0 0 0 0 0 0 0 0 0 0 0 0 0 0 0 0 0 0 0 0 0 0 0 0 0 0 0 0 0 0 0 0 0 0
0 0 0 0 0 0 0 0 0 0 0 0 0 0 0 0 0 0 0 0 0 0 0 0 0 0 0 0 0 0 0 0 0 0 0 0 0 0 0 0 0 0 0 0
0 0 0 0 0 0 0 0 0 0 0 0 0 0 0 0 0 0 0 0 0 0 0 0 0 0 0 0 0 0 0 0 0 0 0 0 0 0 0 0 0 0 0 0
0 0 0 0 0 0 0 0 0 0 0 0 0 0 0 0 0 0 0 0 0 0 0 0 0 0 0 0 0 0 0 0 0 0 0 0 0 0 0 0 0 0 0 0
0 0 0 0 0 0 0 0 0 0 0 0 0 0 0 0 0 0 0 0 0 0 0 0 0 0 0 0 0 0 -0 -0 -0 0 0 0 0 0 0 0 0 0 0 0
0 0 0 0 0 0 0 0 0 0 0 0 0 0 0 0 0 0 0 0 0 0 0 0 0 0 0 0 0 -0 -0 -0 0 0 0 0 0 0 0 0 0 0 0 0
0 0 0 0 0 0 0 0 0 0 0 0 0 0 0 0 0 0 0 0 0 -0 -0 0 0 0 0 0 -0 -0 -0 -0 0 0 0 0 0 0 0 0 0 0 0 0
0 0 0 0 0 0 0 0 0 0 0 0 0 0 0 0 0 0 0 0 0 0 0 0 0 0 0 0 -0 0 0 0 0 0 0 0 0 0 0 0 0 0 0 0
0 0 0 0 0 0 0 0 0 0 0 0 0 0 0 0 0 0 0 0 0 0 0 0 0 0 0 -0 -0 0 0 0 0 0 0 0 0 0 0 0 0 0 0 0
0 0 0 0 0 0 0 0 0 0 0 0 0 0 0 0 0 0 0 0 0 0 0 0 0 0 -0 -0 -0 -0 -0 0 0 0 0 0 0 0 0 0 0 0 0 0
0 0 0 0 0 0 0 0 0 0 0 0 0 0 0 0 0 0 0 0 0 0 0 0 -0 -0 0 0 0 0 0 0 0 0 0 0 0 0 0 0 0 0 0 0
0 0 0 0 0 0 0 0 0 0 0 0 0 0 0 0 0 0 0 0 0 0 0 0 0 -0 0 0 0 0 0 0 0 0 0 0 0 0 0 0 0 0 0 0
0 0 0 0 0 0 0 0 0 0 0 0 0 0 0 0 0 0 0 0 0 0 0 0 0 0 0 0 0 0 0 0 0 0 0 0 0 0 0 0 0 0 0 0
0 0 0 0 0 0 0 0 0 0 0 0 0 0 0 0 0 0 0 0 0 0 0 0 0 0 0 0 0 0 0 0 0 0 0 0 0 0 0 0 0 0 0 0
0 0 0 0 0 0 0 0 0 0 0 0 0 0 0 0 0 0 0 0 0 0 0 0 0 0 0 0 0 0 0 0 0 0 0 0 0 0 0 0 0 0 0 0
0 0 0 0 0 0 0 0 0 0 0 0 0 0 0 0 0 0 0 0 0 0 0 0 0 0 0 0 0 0 0 0 0 0 0 0 0 0 0 0 0 0 0 0
0 0 0 0 0 0 0 0 0 0 0 0 0 0 0 0 0 0 0 0 0 0 0 0 0 0 0 0 0 0 0 0 0 0 0 0 0 0 0 0 0 0 0 0
0 0 0 0 0 0 0 0 0 0 0 0 0 0 0 0 0 0 0 0 0 0 0 0 0 0 0 0 0 0 0 0 0 0 0 0 0 0 0 0 0 0 0 0
0 0 0 0 0 0 0 0 0 0 0 0 0 0 0 0 0 0 0 0 0 0 0 0 0 0 0 0 0 0 0 0 0 0 0 0 0 0 0 0 0 0 0 0
Wind_Speed_500mb
12 8 13 19 17 13 6 4 3 5 10 9 16 18 20 42 35 53 57 60 60 62 54 50 48 52 49 64 67 73 79 81 83 83 88 76 79 74 72 64 60 57 59 56
7 11 18 16 11 13 8 5 8 9 5 6 12 23 20 27 37 58 71 75 77 73 62 54 52 57 62 58 70 74 79 83 85 83 82 86 87 82 75 68 65 61 62 59
14 11 29 12 7 10 7 9 7 12 0 7 10 19 16 16 25 44 62 73 77 74 65 57 51 56 67 65 63 72 77 80 84 83 81 83 84 84 81 77 75 70 64 63
15 21 11 11 11 11 9 7 9 9 2 7 5 16 12 15 24 13 43 49 54 50 42 43 56 43 64 67 57 60 67 75 81 81 82 82 86 87 87 85 80 73 71 71
14 15 14 17 11 15 12 4 8 8 6 3 4 7 15 9 16 23 38 62 59 49 42 36 38 42 47 54 53 56 68 74 78 80 79 73 71 74 78 79 77 77 74 71
11 3 8 16 5 12 17 12 15 10 6 8 15 13 8 11 13 13 15 34 29 25 30 35 35 35 41 47 48 49 57 64 69 71 70 68 64 63 71 74 73 74 74 74
6 8 7 8 12 10 11 14 3 4 1 15 11 12 21 11 12 10 10 12 23 28 28 28 29 33 38 41 40 42 48 57 64 65 66 65 61 60 64 64 66 70 72 75
19 13 20 14 17 19 17 17 12 16 9 10 5 15 12 19 28 14 11 18 28 29 25 25 27 28 28 30 33 36 40 45 53 59 62 62 62 59 61 59 57 57 58 58
13 13 7 14 11 26 14 17 15 7 2 6 10 14 14 15 18 23 20 23 34 29 25 20 19 18 23 28 28 28 29 35 42 47 50 53 57 58 57 55 55 55 54 52
5 2 5 2 3 4 14 15 4 2 7 8 10 10 15 8 14 19 15 24 22 23 21 18 20 21 20 20 19 17 18 19 23 25 28 36 40 45 49 52 56 57 53 51
7 3 5 9 13 20 6 7 8 9 11 11 9 12 9 9 5 9 15 29 5 19 18 17 18 18 20 17 15 11 8 3 5 11 17 22 27 32 39 44 50 53 51 49
3 4 12 13 6 2 6 19 15 10 6 9 7 16 3 15 11 16 18 22 14 2 12 17 19 24 21 20 18 11 8 7 8 13 20 26 31 33 35 38 42 43 44 44
6 3 3 9 6 4 7 4 13 6 5 16 13 12 9 8 21 21 20 21 15 11 7 13 23 23 21 17 10 6 1 10 17 23 29 35 37 38 43 42 43 44 42 44
9 9 8 14 2 3 8 5 8 2 13 10 24 5 15 14 13 21 35 30 20 15 9 12 19 13 18 16 11 15 13 22 28 34 39 43 44 47 47 46 46 46 45 46
9 7 9 10 9 6 4 4 2 4 8 11 24 26 17 27 22 24 49 47 35 23 20 8 22 24 25 25 26 30 35 42 41 43 51 54 51 51 53 50 49 48 49 49
9 6 3 7 20 17 11 21 21 18 14 13 26 29 26 37 23 29 34 23 19 18 17 26 28 24 23 27 25 27 33 40 49 56 57 58 57 56 56 53 51 51 52 51
11 8 8 7 6 11 13 32 29 21 29 23 19 15 5 7 13 18 20 22 22 20 14 11 12 13 17 22 28 35 41 44 52 55 55 58 59 60 57 56 55 55 53 50
10 8 5 6 5 11 9 6 21 36 14 19 5 7 5 4 2 12 22 24 26 29 31 31 32 31 31 35 40 47 49 46 46 47 50 51 55 57 57 57 56 56 54 52
9 7 6 8 7 11 15 8 14 17 20 10 12 8 3 3 10 11 20 24 28 32 34 34 34 38 39 39 39 41 39 40 41 41 42 45 48 52 53 56 56 56 54 53
6 5 5 4 9 15 12 6 6 10 7 12 17 10 4 9 5 5 24 30 32 31 33 35 34 34 35 32 33 33 33 35 36 35 34 36 40 44 47 49 50 51 53 50
10 9 20 6 6 14 13 8 3 8 9 21 16 11 8 4 4 22 28 33 39 41 37 36 37 35 33 36 39 39 35 31 32 31 29 28 30 33 35 38 41 45 49 52
18 17 11 7 6 18 18 6 13 10 21 13 7 6 5 15 24 30 36 42 46 49 41 36 38 38 39 43 44 38 35 36 32 30 26 22 23 26 31 35 38 43 48 50
5 13 12 16 12 5 12 27 32 17 9 7 7 10 26 30 36 41 46 44 44 39 36 38 46 48 47 49 48 49 43 40 40 37 31 26 25 24 25 31 34 40 44 46
7 7 6 8 4 14 30 15 7 8 13 7 6 20 32 38 42 46 44 40 38 37 39 41 45 47 46 46 47 48 49 49 47 42 35 29 24 23 25 27 30 35 41 41
9 16 11 2 6 16 10 14 9 1 2 16 28 40 42 43 46 45 41 30 28 33 36 37 36 35 34 35 37 40 42 42 42 41 38 34 29 26 25 28 28 28 33 35
14 11 9 7 15 6 8 1 11 28 36 41 41 43 38 37 34 35 35 28 35 40 42 43 45 48 46 43 40 37 36 36 35 35 34 32 28 25 28 25 29 31 28 32
Wind_Direction_500mb
188 124 186 199 192 203 171 196 247 271 203 154 220 254 252 269 274 275 271 265 260 257 257 253 250 240 238 225 224 225 226 225 225 226 223 217 222 221 226 222 224 235 233 235
62 215 215 205 207 217 224 257 259 294 164 159 273 262 250 259 255 254 258 262 261 262 259 255 252 242 233 231 224 225 228 230 232 233 232 226 227 230 230 230 230 236 237 236
166 228 198 180 189 173 205 179 205 217 322 300 317 277 264 260 255 268 260 257 262 263 264 257 246 243 232 228 228 228 230 232 234 234 235 235 232 232 233 229 228 237 238 239
218 231 135 181 207 149 225 201 203 249 55 242 123 287 288 279 271 244 264 266 261 258 257 257 241 245 228 223 227 232 232 231 234 237 238 240 239 236 235 235 235 236 241 239
236 162 178 205 197 163 217 145 162 177 174 338 218 278 271 285 281 268 248 257 264 266 258 248 234 237 219 216 224 229 230 234 237 242 243 243 241 241 241 240 240 242 242 240
185 162 168 192 93 164 145 76 38 34 76 277 184 188 216 207 213 267 294 270 253 233 211 198 199 205 211 218 224 229 233 237 240 244 247 248 248 244 240 240 238 237 238 240
172 201 161 136 79 34 99 96 11 329 334 244 229 193 246 268 229 210 214 191 188 185 185 197 209 214 219 225 231 235 232 232 237 242 248 252 249 248 248 246 245 244 241 240
188 249 163 186 181 172 191 160 167 194 198 252 342 237 244 226 250 265 292 233 200 203 208 211 210 213 218 228 232 234 234 232 234 238 246 253 255 254 252 249 246 246 247 250
176 241 150 184 159 155 202 214 180 88 46 44 226 290 288 267 263 269 263 201 209 207 212 211 208 221 240 238 235 232 232 232 238 243 246 250 253 256 255 252 249 247 246 245
251 205 329 80 110 267 173 150 97 232 172 241 254 262 241 308 316 322 313 233 221 208 210 222 236 246 228 208 205 210 223 230 242 247 253 255 256 254 252 249 247 246 247 242
166 145 314 128 202 177 153 198 199 160 164 182 266 257 255 93 30 42 27 46 206 221 221 247 253 219 187 167 146 145 159 176 291 288 273 272 264 255 251 250 250 247 244 238
335 204 208 202 195 0 286 215 188 168 220 216 164 250 102 133 144 91 50 44 49 149 245 245 213 181 170 161 149 115 75 29 325 300 297 295 288 280 267 259 255 255 250 245
166 331 73 351 341 31 208 237 233 230 81 205 174 250 191 89 59 54 44 35 25 355 286 219 185 181 183 179 166 135 332 303 282 274 272 271 273 278 278 266 258 255 250 245
105 160 220 233 215 6 170 73 37 271 213 209 234 168 255 44 15 6 353 342 348 351 309 237 204 224 225 225 254 260 276 295 285 276 273 270 271 270 270 264 258 252 248 245
130 204 155 165 168 140 135 97 62 242 305 225 268 278 323 305 298 305 308 307 316 301 299 265 251 280 271 279 294 298 296 286 284 285 282 275 270 271 270 264 258 251 247 244
171 169 141 213 180 174 195 201 208 204 203 231 254 275 244 273 290 303 305 308 350 288 305 293 292 293 288 289 296 290 291 295 289 286 284 280 274 272 270 267 261 254 250 246
146 143 155 239 213 156 266 222 205 195 190 181 223 225 4 52 50 38 31 26 20 16 8 347 341 329 313 301 296 298 301 294 287 287 288 283 276 271 268 265 260 253 251 248
146 164 168 163 94 227 257 170 203 200 188 210 269 107 97 155 296 85 38 23 15 3 350 340 330 322 316 313 309 306 303 299 292 291 289 285 280 273 267 262 259 254 248 246
148 148 166 150 196 305 304 204 160 172 224 160 140 138 75 2 165 188 28 21 10 2 357 353 344 331 318 310 306 303 303 302 299 299 294 287 282 278 271 266 262 257 252 248
144 119 139 113 167 211 244 249 221 127 267 171 139 154 104 39 117 257 350 350 351 345 339 335 339 344 340 330 322 320 319 314 308 302 296 285 277 275 274 271 266 263 257 253
165 192 205 181 224 284 242 228 183 107 232 162 155 153 151 139 227 305 319 321 322 325 324 317 318 319 325 327 328 324 320 319 318 313 307 300 289 279 272 266 260 258 256 253
174 170 187 148 187 264 187 105 161 142 129 129 147 109 34 340 326 317 310 306 308 309 307 302 303 308 312 316 318 314 311 312 313 311 308 304 297 289 274 261 256 251 249 249
219 180 172 175 205 189 142 120 123 113 109 101 84 27 341 332 327 316 310 305 303 305 300 301 308 312 316 317 316 311 311 309 306 300 296 294 288 279 268 260 250 247 245 244
253 164 157 96 203 142 128 125 101 119 107 96 349 338 333 309 316 312 307 304 299 302 305 301 302 304 306 305 304 305 305 303 297 292 284 278 272 266 267 266 259 243 241 241
188 144 170 306 134 149 203 114 31 42 322 315 314 319 319 308 304 300 301 309 325 326 323 318 314 308 306 305 306 304 302 299 293 286 280 274 264 259 253 258 259 253 252 250
181 165 165 205 150 129 204 342 313 310 306 301 300 305 307 310 304 298 288 298 311 313 314 308 304 298 297 299 297 299 299 295 292 289 285 279 279 275 268 257 256 250 244 240
Wind_Speed_850mb
12 8 13 19 17 13 6 4 3 5 10 9 16 18 20 42 35 53 57 60 60 62 54 50 48 52 49 64 67 73 79 81 83 83 88 76 79 74 72 64 60 57 59 56
7 11 18 16 11 13 8 5 8 9 5 6 12 23 20 27 37 58 71 75 77 73 62 54 52 57 62 58 70 74 79 83 85 83 82 86 87 82 75 68 65 61 62 59
14 11 29 12 7 10 7 9 7 12 0 7 10 19 16 16 25 44 62 73 77 74 65 57 51 56 67 65 63 72 77 80 84 83 81 83 84 84 81 77 75 70 64 63
15 21 11 11 11 11 9 7 9 9 2 7 5 16 12 15 24 13 43 49 54 50 42 43 56 43 64 67 57 60 67 75 81 81 82 82 86 87 87 85 80 73 71 71
14 15 14 17 11 15 12 4 8 8 6 3 4 7 15 9 16 23 38 62 59 49 42 36 38 42 47 54 53 56 68 74 78 80 79 73 71 74 78 79 77 77 74 71
11 3 8 16 5 12 17 12 15 10 6 8 15 13 8 11 13 13 15 34 29 25 30 35 35 35 41 47 48 49 57 64 69 71 70 68 64 63 71 74 73 74 74 74
6 8 7 8 12 10 11 14 3 4 1 15 11 12 21 11 12 10 10 12 23 28 28 28 29 33 38 41 40 42 48 57 64 65 66 65 61 60 64 64 66 70 72 75
19 13 20 14 17 19 17 17 12 16 9 10 5 15 12 19 28 14 11 18 28 29 25 25 27 28 28 30 33 36 40 45 53 59 62 62 62 59 61 59 57 57 58 58
13 13 7 14 11 26 14 17 15 7 2 6 10 14 14 15 18 23 20 23 34 29 25 20 19 18 23 28 28 28 29 35 42 47 50 53 57 58 57 55 55 55 54 52
5 2 5 2 3 4 14 15 4 2 7 8 10 10 15 8 14 19 15 24 22 23 21 18 20 21 20 20 19 17 18 19 23 25 28 36 40 45 49 52 56 57 53 51
7 3 5 9 13 20 6 7 8 9 11 11 9 12 9 9 5 9 15 29 5 19 18 17 18 18 20 17 15 11 8 3 5 11 17 22 27 32 39 44 50 53 51 49
3 4 12 13 6 2 6 19 15 10 6 9 7 16 3 15 11 16 18 22 14 2 12 17 19 24 21 20 18 11 8 7 8 13 20 26 31 33 35 38 42 43 44 44
6 3 3 9 6 4 7 4 13 6 5 16 13 12 9 8 21 21 20 21 15 11 7 13 23 23 21 17 10 6 1 10 17 23 29 35 37 38 43 42 43 44 42 44
9 9 8 14 2 3 8 5 8 2 13 10 24 5 15 14 13 21 35 30 20 15 9 12 19 13 18 16 11 15 13 22 28 34 39 43 44 47 47 46 46 46 45 46
9 7 9 10 9 6 4 4 2 4 8 11 24 26 17 27 22 24 49 47 35 23 20 8 22 24 25 25 26 30 35 42 41 43 51 54 51 51 53 50 49 48 49 49
9 6 3 7 20 17 11 21 21 18 14 13 26 29 26 37 23 29 34 23 19 18 17 26 28 24 23 27 25 27 33 40 49 56 57 58 57 56 56 53 51 51 52 51
11 8 8 7 6 11 13 32 29 21 29 23 19 15 5 7 13 18 20 22 22 20 14 11 12 13 17 22 28 35 41 44 52 55 55 58 59 60 57 56 55 55 53 50
10 8 5 6 5 11 9 6 21 36 14 19 5 7 5 4 2 12 22 24 26 29 31 31 32 31 31 35 40 47 49 46 46 47 50 51 55 57 57 57 56 56 54 52
9 7 6 8 7 11 15 8 14 17 20 10 12 8 3 3 10 11 20 24 28 32 34 34 34 38 39 39 39 41 39 40 41 41 42 45 48 52 53 56 56 56 54 53
6 5 5 4 9 15 12 6 6 10 7 12 17 10 4 9 5 5 24 30 32 31 33 35 34 34 35 32 33 33 33 35 36 35 34 36 40 44 47 49 50 51 53 50
10 9 20 6 6 14 13 8 3 8 9 21 16 11 8 4 4 22 28 33 39 41 37 36 37 35 33 36 39 39 35 31 32 31 29 28 30 33 35 38 41 45 49 52
18 17 11 7 6 18 18 6 13 10 21 13 7 6 5 15 24 30 36 42 46 49 41 36 38 38 39 43 44 38 35 36 32 30 26 22 23 26 31 35 38 43 48 50
5 13 12 16 12 5 12 27 32 17 9 7 7 10 26 30 36 41 46 44 44 39 36 38 46 48 47 49 48 49 43 40 40 37 31 26 25 24 25 31 34 40 44 46
7 7 6 8 4 14 30 15 7 8 13 7 6 20 32 38 42 46 44 40 38 37 39 41 45 47 46 46 47 48 49 49 47 42 35 29 24 23 25 27 30 35 41 41
9 16 11 2 6 16 10 14 9 1 2 16 28 40 42 43 46 45 41 30 28 33 36 37 36 35 34 35 37 40 42 42 42 41 38 34 29 26 25 28 28 28 33 35
14 11 9 7 15 6 8 1 11 28 36 41 41 43 38 37 34 35 35 28 35 40 42 43 45 48 46 43 40 37 36 36 35 35 34 32 28 25 28 25 29 31 28 32
Wind_Direction_850mb
188 124 186 199 192 203 171 196 247 271 203 154 220 254 252 269 274 275 271 265 260 257 257 253 250 240 238 225 224 225 226 225 225 226 223 217 222 221 226 222 224 235 233 235
62 215 215 205 207 217 224 257 259 294 164 159 273 262 250 259 255 254 258 262 261 262 259 255 252 242 233 231 224 225 228 230 232 233 232 226 227 230 230 230 230 236 237 236
166 228 198 180 189 173 205 179 205 217 322 300 317 277 264 260 255 268 260 257 262 263 264 257 246 243 232 228 228 228 230 232 234 234 235 235 232 232 233 229 228 237 238 239
218 231 135 181 207 149 225 201 203 249 55 242 123 287 288 279 271 244 264 266 261 258 257 257 241 245 228 223 227 232 232 231 234 237 238 240 239 236 235 235 235 236 241 239
236 162 178 205 197 163 217 145 162 177 174 338 218 278 271 285 281 268 248 257 264 266 258 248 234 237 219 216 224 229 230 234 237 242 243 243 241 241 241 240 240 242 242 240
185 162 168 192 93 164 145 76 38 34 76 277 184 188 216 207 213 267 294 270 253 233 211 198 199 205 211 218 224 229 233 237 240 244 247 248 248 244 240 240 238 237 238 240
172 201 161 136 79 34 99 96 11 329 334 244 229 193 246 268 229 210 214 191 188 185 185 197 209 214 219 225 231 235 232 232 237 242 248 252 249 248 248 246 245 244 241 240
188 249 163 186 181 172 191 160 167 194 198 252 342 237 244 226 250 265 292 233 200 203 208 211 210 213 218 228 232 234 234 232 234 238 246 253 255 254 252 249 246 246 247 250
176 241 150 184 159 155 202 214 180 88 46 44 226 290 288 267 263 269 263 201 209 207 212 211 208 221 240 238 235 232 232 232 238 243 246 250 253 256 255 252 249 247 246 245
251 205 329 80 110 267 173 150 97 232 172 241 254 262 241 308 316 322 313 233 221 208 210 222 236 246 228 208 205 210 223 230 242 247 253 255 256 254 252 249 247 246 247 242
166 145 314 128 202 177 153 198 199 160 164 182 266 257 255 93 30 42 27 46 206 221 221 247 253 219 187 167 146 145 159 176 291 288 273 272 264 255 251 250 250 247 244 238
335 204 208 202 195 0 286 215 188 168 220 216 164 250 102 133 144 91 50 44 49 149 245 245 213 181 170 161 149 115 75 29 325 300 297 295 288 280 267 259 255 255 250 245
166 331 73 351 341 31 208 237 233 230 81 205 174 250 191 89 59 54 44 35 25 355 286 219 185 181 183 179 166 135 332 303 282 274 272 271 273 278 278 266 258 255 250 245
105 160 220 233 215 6 170 73 37 271 213 209 234 168 255 44 15 6 353 342 348 351 309 237 204 224 225 225 254 260 276 295 285 276 273 270 271 270 270 264 258 252 248 245
130 204 155 165 168 140 135 97 62 242 305 225 268 278 323 305 298 305 308 307 316 301 299 265 251 280 271 279 294 298 296 286 284 285 282 275 270 271 270 264 258 251 247 244
171 169 141 213 180 174 195 201 208 204 203 231 254 275 244 273 290 303 305 308 350 288 305 293 292 293 288 289 296 290 291 295 289 286 284 280 274 272 270 267 261 254 250 246
146 143 155 239 213 156 266 222 205 195 190 181 223 225 4 52 50 38 31 26 20 16 8 347 341 329 313 301 296 298 301 294 287 287 288 283 276 271 268 265 260 253 251 248
146 164 168 163 94 227 257 170 203 200 188 210 269 107 97 155 296 85 38 23 15 3 350 340 330 322 316 313 309 306 303 299 292 291 289 285 280 273 267 262 259 254 248 246
148 148 166 150 196 305 304 204 160 172 224 160 140 138 75 2 165 188 28 21 10 2 357 353 344 331 318 310 306 303 303 302 299 299 294 287 282 278 271 266 262 257 252 248
144 119 139 113 167 211 244 249 221 127 267 171 139 154 104 39 117 257 350 350 351 345 339 335 339 344 340 330 322 320 319 314 308 302 296 285 277 275 274 271 266 263 257 253
165 192 205 181 224 284 242 228 183 107 232 162 155 153 151 139 227 305 319 321 322 325 324 317 318 319 325 327 328 324 320 319 318 313 307 300 289 279 272 266 260 258 256 253
174 170 187 148 187 264 187 105 161 142 129 129 147 109 34 340 326 317 310 306 308 309 307 302 303 308 312 316 318 314 311 312 313 311 308 304 297 289 274 261 256 251 249 249
219 180 172 175 205 189 142 120 123 113 109 101 84 27 341 332 327 316 310 305 303 305 300 301 308 312 316 317 316 311 311 309 306 300 296 294 288 279 268 260 250 247 245 244
253 164 157 96 203 142 128 125 101 119 107 96 349 338 333 309 316 312 307 304 299 302 305 301 302 304 306 305 304 305 305 303 297 292 284 278 272 266 267 266 259 243 241 241
188 144 170 306 134 149 203 114 31 42 322 315 314 319 319 308 304 300 301 309 325 326 323 318 314 308 306 305 306 304 302 299 293 286 280 274 264 259 253 258 259 253 252 250
181 165 165 205 150 129 204 342 313 310 306 301 300 305 307 310 304 298 288 298 311 313 314 308 304 298 297 299 297 299 299 295 292 289 285 279 279 275 268 257 256 250 244 240